Location: Banios
(43.0451°N, 0.2335°E)
Time: 10:31:43
(UTC+00:00)

Envisat - Pass Details

Date: 11 December 2021
Orbit: 764 x 766 km, 98.2° (Epoch: 20 January)

Event Time Altitude Azimuth Distance (km) Brightness Sun altitude
Rises 17:27:51 0° 212° (SSW) 3,220 7.2 -11.2°
Reaches altitude 10° 17:31:10 10° 236° (SW) 2,300 6.9 -11.8°
Maximum altitude 17:34:02 15° 270° (W) 1,973 6.2 -12.3°
Drops below altitude 10° 17:36:55 10° 305° (NW) 2,310 6.0 -12.8°
Sets 17:40:16 0° 328° (NNW) 3,242 6.4 -13.4°
